Simultaneous Nadir Overpasses (SNOs) Predictions

Prediction of SNOs between TERRA and METOP-C Satellite Orbit:

Table of predicted SNOs for the next 14.0 days since TLE Epoch: 12/10/2022
Index Date (TERRA) Time (TERRA) Lat,Lon (TERRA) SZA (TERRA ) Date (METOP-C) Time (METOP-C) Lat,Lon (METOP-C) SZA (METOP-C ) Distance(km) Time Diff (sec)
1 12/12/2022 07:55:33 80.96, 97.39 105.81 12/12/2022 07:54:42 80.96, 97.21 105.77 3.27 51
2 12/12/2022 08:44:55 -81.00, -94.47 74.12 12/12/2022 08:45:20 -81.00, -94.59 74.12 2.04 25
3 12/15/2022 00:07:13 80.96,-145.50 105.95 12/15/2022 00:06:21 80.97,-145.47 105.94 0.56 52
4 12/15/2022 00:56:35 -81.00, 22.62 73.98 12/15/2022 00:56:59 -81.00, 22.70 73.96 1.32 24
5 12/17/2022 16:18:53 80.96, -28.54 106.02 12/17/2022 16:18:01 80.96, -28.58 106.00 0.65 52
6 12/17/2022 17:08:15 -80.99, 139.58 73.91 12/17/2022 17:08:39 -80.99, 139.57 73.90 0.26 24
7 12/20/2022 08:30:32 80.97, 88.63 106.07 12/20/2022 08:29:40 80.96, 88.63 106.05 0.19 52
8 12/20/2022 09:19:54 -81.00,-103.26 73.87 12/20/2022 09:20:18 -81.00,-103.24 73.86 0.29 24
9 12/23/2022 00:42:10 80.96,-154.33 106.03 12/23/2022 00:41:18 80.97,-154.21 106.03 2.14 52



Historial Predications of SNOs between TERRA and METOP-C
